Home > Time Zones > World Clock > Weather > Italy > Genoa > Past weeks

Flag for Italy Weather past 2 weeks in Genoa, Italy

Now
68 °F

Passing clouds.


Feels Like: 68 °F
Forecast: 67 / 76 °F
Wind: 3 mph from Northeast

Location: Genova / Sestri

Current Time: Sep 16, 2014 at 5:23:04 AM

Latest Report: Sep 16, 2014 at 4:50 AM


Visibility: N/A

Pressure: 29.95 "Hg

Humidity: 83%

Dew point: 63 °F

Location of GenoaLocation

Historic Weather in Genoa — Graph

°F

Genoa temperature yesterday

Maximum temperature yesterday: 75 °F (at 3:20 PM)
Minimum temperature yesterday: 66 °F (at 1:20 AM)
Average temperature yesterday: 69 °F

Past Weeks' High & Low Weather Summary

 TemperatureHumidityPressure
High84 °F (Sep 1, 4:20 PM)94% (Sep 9, 11:50 PM)30.04 "Hg (Sep 9, 11:50 PM)
Low64 °F (Sep 12, 6:20 AM)20% (Sep 1, 4:20 PM)29.65 "Hg (Sep 1, 4:50 AM)
Average73 °F68%29.90 "Hg
* Reported Sep 1 4:20 AM — Sep 16 4:20 AM, Genoa, Weather by CustomWeather, © 2014

Note: Actual official high and low records may vary slightly from our data, if they occured in-between our weather recording intervals... More about our weather records

Advertising

Genoa weather history for previous 24 hours

 ConditionsComfort  
Time TempWeatherWind HumidityBarometerVisibility
4:20 AM
Sep 16
68 °FPassing clouds.2 mph83%29.95 "HgN/A
3:50 AM68 °FPassing clouds.3 mph83%29.98 "HgN/A
3:20 AM68 °FPassing clouds.7 mph83%29.95 "HgN/A
2:50 AM68 °FPassing clouds.6 mph83%29.98 "HgN/A
2:20 AM68 °FPassing clouds.6 mph88%29.98 "HgN/A
1:50 AM68 °FPassing clouds.5 mph88%29.98 "HgN/A
1:20 AM68 °FPassing clouds.3 mph88%29.98 "HgN/A
12:50 AM68 °FPassing clouds.5 mph88%29.98 "HgN/A
12:20 AM68 °FPassing clouds.5 mph88%29.98 "HgN/A
11:50 PM
Sep 15
68 °FPassing clouds.5 mph94%29.98 "HgN/A
11:20 PM68 °FLight rain. Passing clouds.3 mph94%29.98 "HgN/A
10:50 PM68 °FLight rain. Passing clouds.5 mph94%29.98 "HgN/A
10:20 PM68 °FThunderstorms. Partly cloudy.5 mph94%29.98 "HgN/A
9:50 PM68 °FThunderstorms. Partly cloudy.7 mph94%29.98 "HgN/A
9:20 PM70 °FThunderstorms. Passing clouds.3 mph88%29.98 "HgN/A
8:50 PM70 °FPassing clouds.2 mph88%29.98 "HgN/A
8:20 PM70 °FLight rain. Scattered clouds.5 mph88%29.98 "HgN/A
7:50 PM72 °FLight rain. Scattered clouds.2 mph83%29.95 "HgN/A
7:20 PM72 °FPartly sunny.6 mph83%29.95 "HgN/A
6:50 PM72 °FPartly sunny.5 mph83%29.95 "HgN/A
6:20 PM72 °FScattered clouds.5 mph83%29.95 "HgN/A
5:50 PM73 °FScattered clouds.3 mph78%29.95 "HgN/A
5:20 PM72 °FScattered clouds.5 mph78%29.98 "HgN/A
4:50 PM73 °FScattered clouds.5 mph78%29.98 "HgN/A
4:20 PM73 °FScattered clouds.5 mph74%29.98 "HgN/A
3:50 PM73 °FPassing clouds.5 mph78%29.98 "HgN/A
3:20 PM75 °FPassing clouds.5 mph74%29.98 "HgN/A
2:50 PM73 °FPassing clouds.6 mph78%29.98 "HgN/A
2:20 PM73 °FPassing clouds.6 mph83%29.98 "HgN/A
1:50 PM73 °FPassing clouds.5 mph78%29.98 "HgN/A
1:20 PM72 °FScattered clouds.1 mph83%30.01 "HgN/A
12:50 PM72 °FPartly sunny.1 mph83%30.01 "HgN/A
12:20 PM72 °FLight rain. Partly sunny.5 mph78%30.01 "HgN/A
11:50 AM72 °FScattered showers. Partly sunny.6 mph83%30.01 "HgN/A
11:20 AM70 °FScattered showers. Broken clouds.7 mph83%30.01 "HgN/A
10:50 AM70 °FScattered showers. Partly sunny.7 mph83%30.01 "HgN/A
10:20 AM72 °FPartly sunny.6 mph73%30.01 "HgN/A
9:50 AM70 °FBroken clouds.3 mph73%29.98 "HgN/A
9:20 AM70 °FBroken clouds.3 mph73%29.98 "HgN/A
8:50 AM68 °FScattered clouds.5 mph78%29.98 "HgN/A
8:20 AM66 °FScattered clouds.5 mph83%29.98 "HgN/A
7:50 AM66 °FPassing clouds.5 mph83%29.98 "HgN/A
7:20 AM66 °FPassing clouds.5 mph83%29.98 "HgN/A
6:50 AM66 °FPassing clouds.7 mph83%29.95 "HgN/A
6:20 AM66 °FPassing clouds.6 mph83%29.95 "HgN/A
5:50 AM66 °FPassing clouds.7 mph83%29.95 "HgN/A
5:20 AM66 °FPassing clouds.6 mph83%29.95 "HgN/A
Weather by CustomWeather, © 2014

See weather overviewHow to use our weather pages